Preview of NWS' New Version of Forecast
This preview is not operational and should not be used for support decisions.

Regional Weather Roundup (RWR)

Issued by National Weather Service (NWS)

                            
000
ASPQ40 PGUM 210210
RWRPQ 
WEATHER ROUNDUP FOR THE MARIANAS AND MICRONESIA
NATIONAL WEATHER SERVICE TIYAN GU
1200 PM CHST WED AUG 21 2019

GUZ001>004-210300-
MARIANA ISLANDS-
  
CITY           SKY/WX    TMP DP  RH WIND       PRES   REMARKS
GUAM AIRPORT   CLOUDY    84  73  70 NW6       29.87F HX  91           
ANDERSEN AFB   MOSUNNY   86  73  66 N7        29.88F HX  93           
ROTA AIRPORT   MOSUNNY   84  72  65 E12       29.84R                  
TINIAN AP      NOT AVBL                                               
SAIPAN AP      MOSUNNY   90  77  66 E7        29.86F HX 102           

$$

PMZ161-210300-
REPUBLIC OF PALAU-
  
CITY           SKY/WX    TMP DP  RH WIND       PRES   REMARKS
KOROR AP       PTSUNNY   84  75  74 SW15G28   29.79F HX  92           
KOROR WSO      NOT AVBL                                               

$$

PMZ171>174-210300-
FEDERATED STATES OF MICRONESIA-
  
CITY           SKY/WX    TMP DP  RH WIND       PRES   REMARKS
YAP AIRPORT    CLOUDY    88  79  74 VRB7      29.82F HX 102           
CHUUK AP       MOSUNNY   90  81  74 N12       29.75F HX 108           
POHNPEI AP     PTSUNNY   90  79  70 E12       29.74F HX 105           
POHNPEI WSO    PTSUNNY   90  81  74 NE7       29.78F HX 108           
KOSRAE AP      NOT AVBL                                               

$$

PMZ181-210300-
REPUBLIC OF THE MARSHALL ISLANDS-
  
CITY           SKY/WX    TMP DP  RH WIND       PRES   REMARKS
KWAJALEIN AP   SUNNY     82  77  83 SE7       29.78F HX  91           
MAJURO AP      PTSUNNY   86  79  79 E9        29.77  HX  99           
MAJURO WSO     PTSUNNY   86  77  74 SE7       29.76F HX  97           

$$